TimeAST,TemperatureF,Dew PointF,Humidity,Sea Level PressureIn,VisibilityMPH,Wind Direction,Wind SpeedMPH,Gust SpeedMPH,PrecipitationIn,Events,Conditions,WindDirDegrees,DateUTC
12:00 AM,89.6,82.4,79,29.62,5.0,North,5.8,-,N/A,,Unknown,10,2013-08-29 21:00:00
1:30 AM,89.6,82.4,79,29.62,5.6,North,5.8,-,N/A,,Unknown,10,2013-08-29 22:30:00
2:00 AM,89.6,82.4,79,29.59,5.6,NE,5.8,-,N/A,,Unknown,40,2013-08-29 23:00:00
3:00 AM,90,82,70,29.62,6,NNE,3.5,,,,Haze,30,2013-08-30 00:00:00
3:00 AM,89.6,82.4,79,29.59,5.6,NNE,3.5,-,N/A,,Unknown,30,2013-08-30 00:00:00
3:30 AM,89.6,82.4,79,29.62,5.0,Variable,2.3,-,N/A,,Unknown,0,2013-08-30 00:30:00
4:00 AM,89.6,80.6,75,29.62,5.0,NE,4.6,-,N/A,,Unknown,50,2013-08-30 01:00:00
5:00 AM,89.6,82.4,79,29.62,5.0,NE,4.6,-,N/A,,Partly Cloudy,50,2013-08-30 02:00:00
5:30 AM,89.6,82.4,79,29.65,5.0,NE,5.8,-,N/A,,Partly Cloudy,50,2013-08-30 02:30:00
6:00 AM,91.4,82.4,75,29.65,5.6,ENE,4.6,-,N/A,,Partly Cloudy,60,2013-08-30 03:00:00
6:30 AM,91.4,82.4,75,29.65,5.6,ENE,6.9,-,N/A,,Partly Cloudy,60,2013-08-30 03:30:00
7:00 AM,93.2,82.4,71,29.68,5.6,ENE,6.9,-,N/A,,Partly Cloudy,60,2013-08-30 04:00:00
7:30 AM,93.2,82.4,71,29.68,5.6,ENE,8.1,-,N/A,,Unknown,60,2013-08-30 04:30:00
8:00 AM,93.2,82.4,71,29.68,5.6,ENE,8.1,-,N/A,,Unknown,70,2013-08-30 05:00:00
8:30 AM,95.0,82.4,67,29.68,5.6,East,10.4,-,N/A,,Partly Cloudy,80,2013-08-30 05:30:00
9:00 AM,95,82,59,29.70,6,ENE,10.4,,,,Haze,70,2013-08-30 06:00:00
9:00 AM,95.0,82.4,67,29.68,5.6,ENE,10.4,-,N/A,,Partly Cloudy,70,2013-08-30 06:00:00
9:30 AM,96.8,82.4,63,29.68,5.6,East,10.4,-,N/A,,Partly Cloudy,100,2013-08-30 06:30:00
10:00 AM,96.8,82.4,63,29.68,5.6,East,9.2,-,N/A,,Partly Cloudy,90,2013-08-30 07:00:00
10:30 AM,96.8,82.4,63,29.68,5.6,East,11.5,-,N/A,,Partly Cloudy,100,2013-08-30 07:30:00
11:00 AM,96.8,82.4,63,29.68,5.6,East,10.4,-,N/A,,Partly Cloudy,100,2013-08-30 08:00:00
11:30 AM,96.8,82.4,63,29.65,5.6,East,9.2,-,N/A,,Partly Cloudy,100,2013-08-30 08:30:00
12:00 PM,98.6,82.4,60,29.65,5.0,East,8.1,-,N/A,,Partly Cloudy,90,2013-08-30 09:00:00
12:30 PM,96.8,80.6,60,29.65,5.0,ENE,8.1,-,N/A,,Unknown,60,2013-08-30 09:30:00
1:00 PM,98.6,80.6,56,29.65,5.0,ENE,9.2,-,N/A,,Unknown,70,2013-08-30 10:00:00
1:30 PM,98.6,80.6,56,29.62,5.0,East,8.1,-,N/A,,Unknown,80,2013-08-30 10:30:00
2:00 PM,96.8,80.6,60,29.62,5.0,ENE,9.2,-,N/A,,Partly Cloudy,60,2013-08-30 11:00:00
2:30 PM,96.8,82.4,63,29.62,5.0,NE,10.4,-,N/A,,Partly Cloudy,50,2013-08-30 11:30:00
3:00 PM,97,81,52,29.62,6,NE,10.4,,,,Haze,40,2013-08-30 12:00:00
3:00 PM,96.8,80.6,60,29.62,5.6,NE,10.4,-,N/A,,Unknown,40,2013-08-30 12:00:00
3:30 PM,96.8,80.6,60,29.59,5.6,NNE,10.4,-,N/A,,Unknown,30,2013-08-30 12:30:00
4:00 PM,96.8,80.6,60,29.59,5.6,NNE,11.5,-,N/A,,Unknown,30,2013-08-30 13:00:00
4:30 PM,95.0,80.6,63,29.59,5.6,NE,10.4,-,N/A,,Unknown,40,2013-08-30 13:30:00
5:00 PM,95.0,82.4,67,29.59,5.6,NNE,8.1,-,N/A,,Unknown,30,2013-08-30 14:00:00
5:30 PM,93.2,82.4,71,29.59,5.6,NNE,9.2,-,N/A,,Unknown,30,2013-08-30 14:30:00
6:00 PM,93.2,82.4,71,29.59,5.0,NNE,10.4,-,N/A,,Unknown,30,2013-08-30 15:00:00
6:30 PM,93.2,82.4,71,29.62,5.6,NNE,9.2,-,N/A,,Unknown,30,2013-08-30 15:30:00
7:00 PM,93.2,82.4,71,29.62,5.6,NNE,9.2,-,N/A,,Unknown,30,2013-08-30 16:00:00
7:30 PM,93.2,82.4,71,29.62,5.6,NNE,9.2,-,N/A,,Unknown,30,2013-08-30 16:30:00
8:00 PM,91.4,82.4,75,29.65,5.6,NE,9.2,-,N/A,,Unknown,40,2013-08-30 17:00:00
9:00 PM,92,83,68,29.67,6,NE,10.4,,,,,40,2013-08-30 18:00:00
9:00 PM,91.4,82.4,75,29.65,-9999.0,NE,10.4,-,N/A,,Clear,40,2013-08-30 18:00:00
9:30 PM,91.4,82.4,75,29.65,-9999.0,NNE,8.1,-,N/A,,Clear,30,2013-08-30 18:30:00
10:00 PM,91.4,82.4,75,29.65,-9999.0,North,6.9,-,N/A,,Clear,10,2013-08-30 19:00:00
10:30 PM,91.4,82.4,75,29.65,-9999.0,NNE,9.2,-,N/A,,Clear,20,2013-08-30 19:30:00
11:00 PM,91.4,82.4,75,29.65,-9999.0,NNE,5.8,-,N/A,,Clear,30,2013-08-30 20:00:00
11:30 PM,91.4,82.4,75,29.62,-9999.0,Variable,2.3,-,N/A,,Clear,0,2013-08-30 20:30:00